DW4360 Weather Reports


time (UTC)temp
C
wind
direction
speed
KPH
gust
KPH
rain 1hr
cm
rain 24hr
cm
rain mn
cm
humidity
%
barometer
mb
20260507194123 20 279 4.8 0.0 0.00 0.00 0.00 49 1018.5
20260507193122 20 329 0.0 0.0 0.00 0.00 0.00 49 1018.7
20260507192121 20 247 0.0 0.0 0.00 0.00 0.00 51 1018.8
20260507191120 20 253 1.6 0.0 0.00 0.00 0.00 50 1018.8
20260507185118 18 205 0.0 0.0 0.00 0.00 0.00 52 1019.1
20260507184117 18 325 0.0 0.0 0.00 0.00 0.00 51 1019.2
20260507183116 19 319 0.0 0.0 0.00 0.00 0.00 52 1019.2
20260507182115 19 304 0.0 0.0 0.00 0.00 0.00 54 1019.3
20260507180113 17 299 0.0 0.0 0.00 0.00 0.00 57 1019.5
20260507175112 17 327 0.0 0.0 0.00 0.00 0.00 59 1019.6
20260507174111 16 325 0.0 0.0 0.00 0.00 0.00 63 1019.7
20260507173110 15 320 0.0 0.0 0.00 0.00 0.00 66 1019.8
20260507172109 13 327 0.0 0.0 0.00 0.00 0.00 68 1019.8
20260507171108 13 317 0.0 0.0 0.00 0.00 0.00 69 1019.8
20260507170106 13 323 0.0 0.0 0.00 0.00 0.00 69 1019.9
20260507165106 13 308 0.0 0.0 0.00 0.00 0.00 69 1019.9
20260507164104 13 5 3.2 0.0 0.00 0.00 0.00 70 1020.0
20260507163104 12 52 0.0 0.0 0.00 0.00 0.00 71 1020.0
20260507162103 12 86 0.0 0.0 0.00 0.00 0.00 72 1020.0
20260507161102 12 321 0.0 0.0 0.00 0.00 0.00 72 1020.0
20260507160101 12 323 0.0 0.0 0.00 0.00 0.00 73 1020.0
20260507155100 12 325 3.2 0.0 0.00 0.00 0.00 73 1020.0
20260507154059 12 319 8.0 0.0 0.00 0.00 0.00 73 1020.1
20260507153058 12 315 0.0 0.0 0.00 0.00 0.00 73 1020.1
20260507152057 11 315 0.0 0.0 0.00 0.00 0.00 74 1020.1
20260507151055 11 313 0.0 0.0 0.00 0.00 0.00 74 1020.1
20260507150054 11 319 0.0 0.0 0.00 0.00 0.00 74 1020.0
20260507145053 11 329 3.2 0.0 0.00 0.00 0.00 77 1020.0
20260507143051 11 360 0.0 0.0 0.00 0.00 0.00 74 1019.9
20260507142050 11 323 0.0 0.0 0.00 0.00 0.00 75 1019.9
20260507141049 11 323 0.0 0.0 0.00 0.00 0.00 76 1019.8
20260507140049 11 323 0.0 0.0 0.00 0.00 0.00 76 1019.7
20260507135048 11 323 0.0 0.0 0.00 0.00 0.00 76 1019.6
20260507134047 11 323 0.0 0.0 0.00 0.00 0.00 76 1019.6
20260507133046 11 323 0.0 0.0 0.00 0.00 0.00 76 1019.6
20260507132045 11 323 0.0 0.0 0.00 0.00 0.00 76 1019.5
20260507131044 11 323 0.0 0.0 0.00 0.00 0.00 76 1019.5
20260507125041 11 323 0.0 0.0 0.00 0.00 0.00 76 1019.6
20260507120037 12 323 0.0 0.0 0.00 0.00 0.00 76 1019.7
20260507115035 12 323 0.0 0.0 0.00 0.00 0.00 76 1019.8
20260507114034 12 323 0.0 0.0 0.00 0.00 0.00 76 1019.8
20260507113033 12 323 0.0 0.0 0.00 0.00 0.00 76 1019.8
20260507111031 12 323 0.0 0.0 0.00 0.00 0.00 75 1019.8
20260507110030 12 319 0.0 0.0 0.00 0.00 0.00 75 1019.9
20260507103027 12 315 6.4 0.0 0.00 0.00 0.00 75 1020.0
20260507101025 12 321 0.0 0.0 0.00 0.00 0.00 76 1020.1
20260507093021 12 308 3.2 0.0 0.00 0.00 0.00 75 1020.4
20260507092020 12 331 0.0 0.0 0.00 0.00 0.00 74 1020.5
20260507091019 12 319 9.7 0.0 0.00 0.00 0.00 74 1020.5
20260507090018 12 321 0.0 0.0 0.00 0.00 0.00 74 1020.5
20260507085017 12 327 0.0 0.0 0.00 0.00 0.00 74 1020.5
20260507083015 12 325 0.0 0.0 0.00 0.00 0.00 74 1020.5
20260507082014 12 323 0.0 0.0 0.00 0.00 0.00 75 1020.6
20260507081013 12 325 0.0 0.0 0.00 0.00 0.00 75 1020.5
20260507075011 13 321 0.0 0.0 0.00 0.00 0.00 76 1020.5
20260507074010 13 318 1.6 0.0 0.00 0.00 0.00 77 1020.5
20260507073009 13 330 0.0 0.0 0.00 0.00 0.00 76 1020.5
20260507072008 13 317 0.0 0.0 0.00 0.00 0.00 76 1020.4
20260507071007 13 327 0.0 0.0 0.00 0.00 0.00 76 1020.3
20260507070010 13 313 0.0 0.0 0.00 0.00 0.00 76 1020.3
20260507065005 13 327 0.0 0.0 0.00 0.00 0.00 76 1020.3
20260507064004 13 316 0.0 0.0 0.00 0.00 0.00 75 1020.4
20260507063003 13 327 3.2 0.0 0.00 0.00 0.00 75 1020.4
20260507062002 13 323 6.4 0.0 0.00 0.00 0.00 75 1020.5
20260507061001 13 317 0.0 0.0 0.00 0.00 0.00 76 1020.4
20260507055959 13 316 1.6 0.0 0.00 0.00 0.00 76 1020.4
20260507054959 13 309 0.0 0.0 0.00 0.00 0.00 76 1020.4
20260507053957 13 360 0.0 0.0 0.00 0.00 0.00 76 1020.4
20260507052956 13 348 0.0 0.0 0.00 0.00 0.00 76 1020.3
20260507051955 13 313 0.0 0.0 0.00 0.00 0.00 75 1020.3
20260507050955 14 327 0.0 0.0 0.00 0.00 0.00 75 1020.4
20260507045953 14 314 0.0 0.0 0.00 0.00 0.00 74 1020.3
20260507044953 14 315 0.0 0.0 0.00 0.00 0.00 74 1020.3
20260507043951 15 317 0.0 0.0 0.00 0.00 0.00 74 1020.4
20260507042951 15 319 0.0 0.0 0.00 0.00 0.00 74 1020.3
20260507041950 15 325 9.7 0.0 0.00 0.00 0.00 73 1020.2
20260507040949 15 320 0.0 0.0 0.00 0.00 0.00 73 1020.1
20260507035947 15 316 0.0 0.0 0.00 0.00 0.00 73 1020.0
20260507034947 15 309 1.6 0.0 0.00 0.00 0.00 73 1019.8
20260507033946 15 318 0.0 0.0 0.00 0.00 0.00 72 1019.6
20260507032945 16 324 0.0 0.0 0.00 0.00 0.00 72 1019.6
20260507031943 16 331 0.0 0.0 0.00 0.00 0.00 72 1019.4
20260507024941 16 333 3.2 0.0 0.00 0.00 0.00 72 1019.1
20260507023940 16 321 0.0 0.0 0.00 0.00 0.00 72 1018.9
20260507022938 16 313 3.2 0.0 0.00 0.00 0.00 72 1018.9
20260507021937 17 327 14.5 0.0 0.00 0.00 0.00 71 1018.9
20260507020937 17 314 6.4 0.0 0.00 0.00 0.00 70 1018.9
20260507015935 17 310 3.2 0.0 0.00 0.00 0.00 69 1018.9
20260507014934 17 316 11.3 0.0 0.00 0.00 0.00 69 1019.0
20260507013933 17 335 0.0 0.0 0.00 0.00 0.00 68 1019.0
20260507012933 18 309 4.8 0.0 0.00 0.00 0.00 67 1019.0
20260507011931 18 323 4.8 0.0 0.00 0.00 0.00 66 1019.0
20260507010930 19 341 1.6 0.0 0.00 0.00 0.00 65 1018.9
20260507003927 20 305 11.3 0.0 0.00 0.00 0.00 62 1018.8
20260507002926 20 312 9.7 0.0 0.00 0.00 0.00 63 1018.8
20260507001925 20 321 0.0 0.0 0.00 0.00 0.00 65 1018.7
20260507000924 21 320 9.7 0.0 0.00 0.00 0.00 65 1018.6
20260506234922 21 319 0.0 0.0 0.00 0.00 0.00 65 1018.6
20260506233921 21 317 0.0 0.0 0.00 0.00 0.00 63 1018.5
20260506232920 21 317 0.0 0.0 0.00 0.00 0.00 60 1018.5
20260506230918 22 323 0.0 0.0 0.00 0.00 0.00 60 1018.7
20260506225917 22 83 0.0 0.0 0.00 0.00 0.00 61 1018.7
20260506224916 22 83 0.0 0.0 0.00 0.00 0.00 60 1018.9
20260506223915 22 307 0.0 0.0 0.00 0.00 0.00 60 1019.0
20260506222914 21 71 0.0 0.0 0.00 0.00 0.00 63 1019.1
20260506221913 21 223 0.0 0.0 0.00 0.00 0.00 63 1019.2
20260506215911 21 257 0.0 0.0 0.00 0.00 0.00 62 1019.3
20260506214910 21 255 0.0 0.0 0.00 0.00 0.00 62 1019.2
20260506213909 21 244 0.0 0.0 0.00 0.00 0.00 65 1019.1
20260506212908 20 192 3.2 0.0 0.00 0.00 0.00 69 1019.3
20260506211907 20 198 0.0 0.0 0.00 0.00 0.00 69 1019.5
20260506205905 19 198 0.0 0.0 0.00 0.00 0.00 69 1019.7
20260506204904 19 198 0.0 0.0 0.00 0.00 0.00 70 1019.6
20260506203903 18 198 0.0 0.0 0.00 0.00 0.00 72 1019.6
20260506202902 18 198 0.0 0.0 0.00 0.00 0.00 72 1019.6
20260506201901 18 198 0.0 0.0 0.00 0.00 0.00 72 1019.6
20260506200900 18 198 0.0 0.0 0.00 0.00 0.00 74 1019.7
20260506195858 17 278 0.0 0.0 0.00 0.00 0.00 75 1019.7
20260506194858 17 277 0.0 0.0 0.00 0.00 0.00 77 1019.9